Total_Precipitation_Accumulation
2.14 2.22 2.24 2.28 2.14 1.98 1.95 2.05 2.19 1.99 1.83 1.64 1.44 1.26 1.35 1.36 1.43 1.25 1.20 1.13 1.01 0.94 0.91 0.83 0.77 0.81 1.01 1.35 1.48 1.44 1.54 1.76 2.13 2.45 2.29 2.15 2.03 1.99
1.93 2.00 2.05 2.10 2.10 2.06 2.02 2.02 2.01 1.96 1.87 1.68 1.40 1.14 1.21 1.28 1.42 1.24 1.27 1.35 1.14 0.99 0.88 0.87 0.84 0.79 0.83 0.96 1.05 0.95 0.90 0.98 1.26 1.88 2.13 2.08 2.09 2.15
1.70 1.73 1.83 1.90 2.06 2.09 2.05 2.01 1.99 1.92 1.79 1.70 1.46 1.23 1.22 1.31 1.38 1.30 1.33 1.33 1.16 1.08 0.99 0.94 0.85 0.88 0.91 0.93 1.00 0.93 0.78 0.71 0.76 0.98 1.29 1.48 1.65 1.88
1.49 1.50 1.61 1.67 1.81 1.93 2.02 1.93 1.94 1.89 1.89 1.84 1.61 1.38 1.31 1.33 1.39 1.37 1.28 1.26 1.24 1.22 1.12 1.05 0.96 0.89 0.94 0.93 1.02 1.07 0.98 0.83 0.74 0.74 0.86 1.03 1.21 1.38
1.26 1.31 1.36 1.42 1.55 1.66 1.76 1.85 1.86 1.79 1.89 1.89 1.68 1.44 1.32 1.30 1.34 1.32 1.29 1.35 1.25 1.26 1.22 1.12 1.07 1.00 1.00 1.00 0.99 1.07 1.06 0.98 0.83 0.79 0.84 0.91 1.01 1.11
1.02 1.02 1.04 1.06 1.18 1.31 1.42 1.57 1.74 1.86 1.94 1.97 1.82 1.53 1.35 1.32 1.37 1.43 1.43 1.37 1.38 1.26 1.26 1.25 1.23 1.18 1.12 1.11 1.02 0.99 1.04 1.04 0.92 0.85 0.82 0.84 0.85 0.85
1.02 0.91 0.83 0.83 0.93 1.02 1.11 1.37 1.57 1.74 1.89 1.95 1.87 1.69 1.51 1.42 1.37 1.37 1.47 1.58 1.58 1.41 1.35 1.26 1.23 1.11 1.01 1.04 1.03 0.96 0.94 0.94 0.88 0.81 0.74 0.67 0.68 0.72
0.96 0.95 0.94 0.89 0.77 0.74 0.80 0.97 1.21 1.42 1.61 1.74 1.77 1.63 1.46 1.42 1.46 1.47 1.46 1.53 1.59 1.45 1.41 1.48 1.41 1.27 1.13 1.02 1.08 1.01 0.94 0.92 0.94 0.91 0.84 0.77 0.75 0.74
0.91 0.90 0.93 0.93 0.97 0.87 0.81 0.80 0.83 1.01 1.26 1.47 1.50 1.46 1.52 1.44 1.40 1.36 1.34 1.34 1.36 1.38 1.40 1.44 1.44 1.32 1.15 1.09 1.18 1.12 1.05 0.98 0.96 0.99 0.98 0.91 0.83 0.78
0.96 0.97 1.01 1.04 1.01 1.12 1.09 1.00 0.93 0.92 1.01 0.97 1.07 1.35 1.46 1.47 1.46 1.48 1.51 1.42 1.36 1.34 1.30 1.34 1.29 1.24 1.13 1.06 1.12 1.06 1.00 0.94 0.94 0.95 0.99 1.02 1.01 0.96
0.93 0.92 0.98 1.02 1.21 1.25 1.17 1.15 1.07 1.01 1.15 1.16 1.17 1.24 1.31 1.31 1.32 1.41 1.47 1.42 1.36 1.30 1.23 1.15 1.12 1.20 1.25 1.16 1.11 1.17 1.10 1.02 0.97 1.00 1.02 1.03 1.09 1.10
1.00 0.94 1.09 1.06 1.08 1.03 1.00 1.19 1.17 1.06 0.97 0.93 0.95 1.00 1.01 1.07 1.15 1.18 1.33 1.35 1.29 1.30 1.19 1.14 1.10 1.18 1.25 1.17 1.05 1.02 1.07 1.11 1.07 1.04 1.08 1.10 1.12 1.06
1.00 1.01 0.97 1.05 0.88 0.84 0.89 1.04 1.20 1.14 1.09 1.11 1.03 0.97 0.95 0.95 0.91 0.97 1.12 1.22 1.25 1.24 1.12 1.09 1.13 1.17 1.11 1.03 1.02 0.92 0.85 0.88 0.88 0.87 0.90 0.98 1.04 1.00
0.88 0.78 0.77 0.84 0.70 0.66 0.65 0.79 0.97 1.01 1.01 1.07 1.04 0.97 0.92 0.88 0.86 0.86 0.95 1.03 1.07 1.09 1.12 1.09 1.10 1.12 1.10 0.95 0.89 0.88 0.85 0.81 0.80 0.79 0.74 0.88 0.93 0.97
0.69 0.67 0.59 0.56 0.55 0.51 0.54 0.64 0.72 0.87 1.00 1.03 0.92 0.85 0.86 0.89 0.90 0.88 0.84 0.87 0.90 0.91 0.92 0.91 0.97 1.07 1.12 1.02 0.90 0.85 0.87 0.88 0.84 0.82 0.81 0.78 0.76 0.81
0.48 0.40 0.38 0.41 0.47 0.49 0.49 0.51 0.58 0.80 0.98 0.97 0.88 0.82 0.84 0.88 0.95 0.98 0.95 0.89 0.89 0.90 0.88 0.88 0.90 0.97 0.98 0.92 0.91 0.88 0.87 0.88 0.86 0.90 0.93 0.89 0.81 0.75
0.61 0.52 0.45 0.43 0.43 0.46 0.49 0.54 0.66 0.77 0.88 0.84 0.83 0.81 0.82 0.89 0.93 0.99 1.05 1.02 0.95 0.90 0.95 1.01 1.04 1.05 1.02 1.00 0.97 0.92 0.94 0.92 0.91 0.95 0.98 0.96 0.89 0.81
0.61 0.62 0.61 0.60 0.59 0.58 0.56 0.53 0.54 0.63 0.71 0.78 0.79 0.80 0.80 0.81 0.82 0.86 0.94 0.99 0.97 0.93 0.88 0.93 1.04 1.15 1.16 1.08 0.96 0.92 0.98 0.99 0.99 1.00 0.98 0.94 0.87 0.85
0.52 0.54 0.54 0.54 0.55 0.54 0.51 0.49 0.47 0.47 0.54 0.65 0.76 0.83 0.86 0.85 0.84 0.81 0.79 0.83 0.82 0.82 0.81 0.81 0.89 1.00 1.10 1.05 0.92 0.80 0.85 0.94 0.97 0.95 0.92 0.88 0.80 0.79
0.34 0.40 0.40 0.40 0.41 0.42 0.40 0.38 0.38 0.41 0.43 0.47 0.58 0.71 0.86 0.96 0.98 0.95 0.90 0.88 0.88 0.83 0.81 0.79 0.78 0.83 0.93 0.93 0.85 0.74 0.73 0.81 0.88 0.86 0.81 0.81 0.80 0.86
0.19 0.23 0.25 0.27 0.30 0.30 0.31 0.32 0.33 0.36 0.40 0.43 0.46 0.51 0.63 0.79 0.91 0.96 1.02 1.10 1.07 1.01 0.97 0.93 0.89 0.93 0.91 0.94 0.87 0.68 0.63 0.67 0.73 0.74 0.75 0.80 0.79 0.77
0.18 0.20 0.21 0.22 0.26 0.29 0.29 0.30 0.31 0.33 0.36 0.40 0.42 0.47 0.55 0.64 0.74 0.83 0.89 0.95 1.01 1.05 1.04 1.01 1.00 1.01 0.99 1.02 0.93 0.76 0.68 0.67 0.70 0.77 0.80 0.87 0.87 0.81
0.19 0.20 0.21 0.23 0.25 0.30 0.38 0.41 0.38 0.36 0.39 0.44 0.49 0.53 0.56 0.61 0.65 0.74 0.80 0.85 0.91 0.94 0.96 0.97 0.96 0.95 0.93 0.92 0.92 0.89 0.80 0.75 0.73 0.72 0.69 0.79 0.83 0.77